User: anonymous   Login
Location: Unspecified
(0.0000°N, 0.0000°E)
Time: 10:52:13
(UTC+00:00)
Language:

Courier 1B Rocket - Orbit

View from above orbital plane
View from above orbital plane
View from above satellite
View from above satellite

Ground track
Ground track

The orbit data is extracted from the following two-line orbital elements,

1    59U 60013B   15244.40163487 +.00000110 +00000-0 +31177-4 0  9998
2    59 028.2476 212.6658 0189165 349.6420 010.0264 13.52926419709284
Epoch (UTC): 01 September 2015 09:38:21
Eccentricity: 0.0189165
inclination: 28.2476°
perigee height: 921 km
apogee height: 1202 km
right ascension of ascending node: 212.6658°
argument of perigee: 349.6420°
revolutions per day: 13.52926419
mean anomaly at epoch: 10.0264°
orbit number at epoch: 70928

The dashed part of the orbit path shows where the satellite is in the earth's shadow,  

DLR